Location: Bakov nad Jizerou
(50.4784°N, 14.9394°E)
Time: 16:24:52
(UTC+00:00)

Cosmos 2322 - Pass Details

Date: 24 October 2021
Orbit: 841 x 854 km, 71.0° (Epoch: 04 December)

Event Time Altitude Azimuth Distance (km) Brightness Sun altitude
Exits shadow 02:06:17 10° 346° (NNW) 2,522 6.3 -33.7°
Reaches altitude 10° 02:06:24 10° 346° (NNW) 2,491 6.2 -33.6°
Maximum altitude 02:10:56 24° 39° (NE) 1,713 5.8 -33.0°
Drops below altitude 10° 02:15:27 10° 92° (E) 2,475 6.8 -32.3°
Sets 02:18:24 0° 106° (ESE) 3,405 7.5 -31.9°
